KPWTKYKM

Guest
Details From KPWT - Bremerton National
To KYKM - Yakima Air Terminal Mc Allister Fld
Flight Number -
Tags Generated
Created
Modified
Stats Distance 106 nm / 197 km
Max Altitude 0 ft / 0 m
Waypoints 2
Social Downloads 3
Likes 0
Share VATSIM

Download

Looking for another format? Having issues loading an existing format? Contact us
Advertisement - Login to hide

Notes

Generated

Route

KPWT KYKM

ID Type Via Altitude Latitude Longitude Leg Dist Tot Dist Heading (true) Name
O KPWT APT - 0 ft / 0 m 47.48333˚ -122.77138˚ - 0 nm - -
O KYKM APT - 0 ft / 0 m 46.56390˚ -120.54813˚ 106 nm 106 nm 120° / 122° -

Altitude Profile

Advertisement - Login to hide

KPWT

Details ICAO KPWT (PWT)
Name Bremerton National
Region United States
Timezone America/Los_Angeles (UTC-7.0)
Stats Elevation 444 ft / 135 m (AMSL)
Location 47.490240° -122.764815°
Runways 1
Magnetic Variation 15.713° E

METAR

KPWT 231456Z AUTO 00000KT 10SM CLR 15/10 A2984 RMK AO2 SLP118 6//// T01500100 53004

Decode

TAF

TAF KPWT 231132Z 2312/2412 VRB03KT P6SM SCT100 FM231800 19007KT P6SM SCT120 FM240500 19010KT P6SM FEW012 SCT100 BKN250 FM240800 19008KT P6SM OVC012

Decode

Departure Runways

ID Width Length Bearing (true) Bearing (mag) Surface Threshold Offset Overrun Length
01 151 ft / 46 m 5,997 ft / 1,828 m 32.69° 16.98° Asphalt 0 ft / 0 m 0 ft / 0 m
19 151 ft / 46 m 5,997 ft / 1,828 m 212.70° 196.99° Asphalt 0 ft / 0 m 1,243 ft / 379 m

KYKM

Details ICAO KYKM (YKM)
Name YAKIMA AIR TERMINAL MC ALLISTER FLD
Region United States
Timezone America/Los_Angeles (UTC-7.0)
Stats Elevation 1,095 ft / 334 m (AMSL)
Location 46.567766° -120.543435°
Runways 2
Magnetic Variation 15.061° E

METAR

KYKM 231453Z 32005KT 10SM CLR 21/09 A2977 RMK AO2 SLP074 T02110094 53002

Decode

TAF

TAF KYKM 231120Z 2312/2412 28007KT P6SM FEW250 FM232100 13007KT P6SM FEW080 BKN120 FM240600 31008KT P6SM VCSH SCT060 BKN090

Decode

Destination Runways

ID Width Length Bearing (true) Bearing (mag) Surface Threshold Offset Overrun Length
04 151 ft / 46 m 3,828 ft / 1,167 m 59.81° 44.75° Asphalt 0 ft / 0 m 0 ft / 0 m
09 151 ft / 46 m 7,586 ft / 2,312 m 110.04° 94.98° Asphalt 0 ft / 0 m 0 ft / 0 m
22 151 ft / 46 m 3,828 ft / 1,167 m 239.82° 224.76° Asphalt 0 ft / 0 m 0 ft / 0 m
27 151 ft / 46 m 7,586 ft / 2,312 m 290.06° 275.00° Asphalt 0 ft / 0 m 0 ft / 0 m

Approach Navaids

Runway Type Ident Frequency Range Bearing (true) Bearing (mag) Slope Elevation
27 Localiser IYKM 110.10 MHz 18 nm / 33 km 290.04° 274.98° - 1,095 ft / 334 m (AMSL)
27 Glidescope IYKM 110.10 MHz 10 nm / 19 km 290.05° 274.99° 3.00° 1,051 ft / 320 m (AMSL)